date,time,SUV Intensity [MED/Hr],UV Index,Daily total [MED],Since Last [MED]
10/03/2023,00:03:52,0.001,0.0,0.0,0.0
10/03/2023,00:04:52,-0.000,0.0,0.0,0.0
10/03/2023,00:05:52,0.000,0.0,0.0,0.0
10/03/2023,00:06:53,0.000,0.0,0.0,0.0
10/03/2023,00:07:53,0.000,0.0,0.0,0.0
10/03/2023,00:08:52,0.001,0.0,0.0,0.0
10/03/2023,00:09:52,0.001,0.0,0.0,0.0
10/03/2023,00:11:15,0.001,0.0,0.0,0.0
10/03/2023,00:12:53,0.001,0.0,0.0,0.0
10/03/2023,00:13:52,0.001,0.0,0.0,0.0
10/03/2023,00:14:53,0.000,0.0,0.0,0.0
10/03/2023,00:15:53,-0.000,0.0,0.0,0.0
10/03/2023,00:16:52,0.001,0.0,0.0,0.0
10/03/2023,00:17:52,-0.000,0.0,0.0,0.0
10/03/2023,00:18:53,0.001,0.0,0.0,0.0
10/03/2023,00:19:53,0.001,0.0,0.0,0.0
10/03/2023,00:20:53,0.000,0.0,0.0,0.0
10/03/2023,00:21:53,0.001,0.0,0.0,0.0
10/03/2023,00:22:53,0.001,0.0,0.0,0.0
10/03/2023,00:23:52,0.001,0.0,0.0,0.0
10/03/2023,00:24:52,0.001,0.0,0.0,0.0
10/03/2023,00:25:52,0.001,0.0,0.0,0.0
10/03/2023,00:26:52,0.001,0.0,0.0,0.0
10/03/2023,00:27:52,0.001,0.0,0.0,0.0
10/03/2023,00:28:52,0.001,0.0,0.0,0.0
10/03/2023,00:29:52,0.001,0.0,0.0,0.0
10/03/2023,00:30:52,0.001,0.0,0.0,0.0
10/03/2023,00:31:52,-0.000,0.0,0.0,0.0
10/03/2023,00:32:53,0.001,0.0,0.0,0.0
10/03/2023,00:33:52,0.001,0.0,0.0,0.0
10/03/2023,00:34:53,0.002,0.0,0.0,0.0
10/03/2023,00:35:53,0.001,0.0,0.0,0.0
10/03/2023,00:36:52,0.001,0.0,0.0,0.0
10/03/2023,00:37:52,-0.000,0.0,0.0,0.0
10/03/2023,00:38:52,0.000,0.0,0.0,0.0
10/03/2023,00:39:52,0.001,0.0,0.0,0.0
10/03/2023,00:40:52,0.001,0.0,0.0,0.0
10/03/2023,00:41:52,0.001,0.0,0.0,0.0
10/03/2023,00:42:52,0.001,0.0,0.0,0.0
10/03/2023,00:43:53,-0.000,0.0,0.0,0.0
10/03/2023,00:44:52,0.001,0.0,0.0,0.0
10/03/2023,00:45:53,0.001,0.0,0.0,0.0
10/03/2023,00:46:52,0.001,0.0,0.0,0.0
10/03/2023,00:47:53,-0.000,0.0,0.0,0.0
10/03/2023,00:48:52,0.001,0.0,0.0,0.0
10/03/2023,00:49:53,0.001,0.0,0.0,0.0
10/03/2023,00:50:51,0.001,0.0,0.0,0.0
10/03/2023,00:51:52,0.001,0.0,0.0,0.0
10/03/2023,00:52:53,0.001,0.0,0.0,0.0
10/03/2023,00:53:53,0.001,0.0,0.0,0.0
10/03/2023,00:54:53,0.001,0.0,0.0,0.0
10/03/2023,00:55:54,0.001,0.0,0.0,0.0
10/03/2023,00:56:52,0.001,0.0,0.0,0.0
10/03/2023,00:57:52,0.001,0.0,0.0,0.0
10/03/2023,00:58:52,0.001,0.0,0.0,0.0
10/03/2023,00:59:52,-0.001,0.0,0.0,0.0
10/03/2023,01:00:51,0.001,0.0,0.0,0.0
10/03/2023,01:01:52,0.001,0.0,0.0,0.0
10/03/2023,01:02:52,0.001,0.0,0.0,0.0
10/03/2023,01:03:52,0.001,0.0,0.0,0.0
10/03/2023,01:04:52,0.001,0.0,0.0,0.0
10/03/2023,01:05:52,0.001,0.0,0.0,0.0
10/03/2023,01:06:52,0.001,0.0,0.0,0.0
10/03/2023,01:07:53,0.001,0.0,0.0,0.0
10/03/2023,01:08:52,0.001,0.0,0.0,0.0
10/03/2023,01:09:52,0.001,0.0,0.0,0.0
10/03/2023,01:10:52,0.001,0.0,0.0,0.0
10/03/2023,01:11:52,0.001,0.0,0.0,0.0
10/03/2023,01:13:14,0.001,0.0,0.0,0.0
10/03/2023,01:14:53,0.001,0.0,0.0,0.0
10/03/2023,01:15:52,0.001,0.0,0.0,0.0
10/03/2023,01:16:52,0.001,0.0,0.0,0.0
10/03/2023,01:17:53,0.001,0.0,0.0,0.0
10/03/2023,01:18:53,0.001,0.0,0.0,0.0
10/03/2023,01:19:53,0.001,0.0,0.0,0.0
10/03/2023,01:20:52,0.001,0.0,0.0,0.0
10/03/2023,01:21:52,0.001,0.0,0.0,0.0
10/03/2023,01:22:52,0.001,0.0,0.0,0.0
10/03/2023,01:23:52,0.001,0.0,0.0,0.0
10/03/2023,01:24:52,0.001,0.0,0.0,0.0
10/03/2023,01:25:52,0.001,0.0,0.0,0.0
10/03/2023,01:26:53,0.001,0.0,0.0,0.0
10/03/2023,01:27:53,0.001,0.0,0.0,0.0
10/03/2023,01:28:52,0.001,0.0,0.0,0.0
10/03/2023,01:29:52,0.001,0.0,0.0,0.0
10/03/2023,01:30:52,0.001,0.0,0.0,0.0
10/03/2023,01:31:52,0.000,0.0,0.0,0.0
10/03/2023,01:32:54,0.001,0.0,0.0,0.0
10/03/2023,01:33:53,0.001,0.0,0.0,0.0
10/03/2023,01:34:53,0.001,0.0,0.0,0.0
10/03/2023,01:35:53,0.001,0.0,0.0,0.0
10/03/2023,01:36:53,0.001,0.0,0.0,0.0
10/03/2023,01:37:53,0.001,0.0,0.0,0.0
10/03/2023,01:38:53,0.001,0.0,0.0,0.0
10/03/2023,01:39:52,0.001,0.0,0.0,0.0
10/03/2023,01:40:53,0.001,0.0,0.0,0.0
10/03/2023,01:41:52,0.001,0.0,0.0,0.0
10/03/2023,01:42:53,0.001,0.0,0.0,0.0
10/03/2023,01:43:53,0.001,0.0,0.0,0.0
10/03/2023,01:44:54,0.001,0.0,0.0,0.0
10/03/2023,01:45:52,0.001,0.0,0.0,0.0
10/03/2023,01:46:53,0.001,0.0,0.0,0.0
10/03/2023,01:47:53,0.001,0.0,0.0,0.0
10/03/2023,01:48:52,0.001,0.0,0.0,0.0
10/03/2023,01:49:52,0.001,0.0,0.0,0.0
10/03/2023,01:50:52,0.001,0.0,0.0,0.0
10/03/2023,01:51:52,0.001,0.0,0.0,0.0
10/03/2023,01:52:52,0.001,0.0,0.0,0.0
10/03/2023,01:53:52,0.001,0.0,0.0,0.0
10/03/2023,01:54:52,0.001,0.0,0.0,0.0
10/03/2023,01:55:52,0.001,0.0,0.0,0.0
10/03/2023,01:56:52,0.001,0.0,0.0,0.0
10/03/2023,01:57:52,0.001,0.0,0.0,0.0
10/03/2023,01:58:52,0.001,0.0,0.0,0.0
10/03/2023,01:59:53,0.002,0.0,0.0,0.0
10/03/2023,02:00:53,0.001,0.0,0.0,0.0
10/03/2023,02:01:54,0.001,0.0,0.0,0.0
10/03/2023,02:02:53,0.001,0.0,0.0,0.0
10/03/2023,02:03:53,0.001,0.0,0.0,0.0
10/03/2023,02:04:53,0.001,0.0,0.0,0.0
10/03/2023,02:05:53,0.001,0.0,0.0,0.0
10/03/2023,02:06:52,0.001,0.0,0.0,0.0
10/03/2023,02:07:52,0.001,0.0,0.0,0.0
10/03/2023,02:08:52,0.001,0.0,0.0,0.0
10/03/2023,02:09:52,0.001,0.0,0.0,0.0
10/03/2023,02:10:52,0.001,0.0,0.0,0.0
10/03/2023,02:11:53,0.001,0.0,0.0,0.0
10/03/2023,02:12:53,0.001,0.0,0.0,0.0
10/03/2023,02:13:52,0.001,0.0,0.0,0.0
10/03/2023,02:14:52,0.001,0.0,0.0,0.0
10/03/2023,02:15:52,0.001,0.0,0.0,0.0
10/03/2023,02:16:52,0.001,0.0,0.0,0.0
10/03/2023,02:17:53,0.001,0.0,0.0,0.0
10/03/2023,02:18:53,0.001,0.0,0.0,0.0
10/03/2023,02:19:52,0.001,0.0,0.0,0.0
10/03/2023,02:20:53,0.001,0.0,0.0,0.0
10/03/2023,02:21:53,0.001,0.0,0.0,0.0
10/03/2023,02:22:57,0.001,0.0,0.0,0.0
10/03/2023,02:23:53,0.001,0.0,0.0,0.0
10/03/2023,02:24:52,0.001,0.0,0.0,0.0
10/03/2023,02:25:53,0.001,0.0,0.0,0.0
10/03/2023,02:26:52,0.001,0.0,0.0,0.0
10/03/2023,02:27:53,0.001,0.0,0.0,0.0
10/03/2023,02:28:53,0.001,0.0,0.0,0.0
10/03/2023,02:29:53,0.001,0.0,0.0,0.0
10/03/2023,02:30:52,0.001,0.0,0.0,0.0
10/03/2023,02:31:52,0.001,0.0,0.0,0.0
10/03/2023,02:32:52,0.001,0.0,0.0,0.0
10/03/2023,02:33:53,0.001,0.0,0.0,0.0
10/03/2023,02:34:53,0.001,0.0,0.0,0.0
10/03/2023,02:35:52,0.002,0.0,0.0,0.0
10/03/2023,02:36:52,0.001,0.0,0.0,0.0
10/03/2023,02:37:52,0.002,0.0,0.0,0.0
10/03/2023,02:38:52,0.002,0.0,0.0,0.0
10/03/2023,02:39:53,0.002,0.0,0.0,0.0
10/03/2023,02:40:53,0.001,0.0,0.0,0.0
10/03/2023,02:41:53,0.002,0.0,0.0,0.0
10/03/2023,02:42:52,0.002,0.0,0.0,0.0
10/03/2023,02:43:52,0.001,0.0,0.0,0.0
10/03/2023,02:44:52,0.001,0.0,0.0,0.0
10/03/2023,02:45:51,0.001,0.0,0.0,0.0
10/03/2023,02:46:53,0.002,0.0,0.0,0.0
10/03/2023,02:47:53,0.002,0.0,0.0,0.0
10/03/2023,02:48:53,0.001,0.0,0.0,0.0
10/03/2023,02:49:53,0.002,0.0,0.0,0.0
10/03/2023,02:50:53,0.002,0.0,0.0,0.0
10/03/2023,02:51:53,0.002,0.0,0.0,0.0
10/03/2023,02:52:53,0.001,0.0,0.0,0.0
10/03/2023,02:53:53,0.002,0.0,0.0,0.0
10/03/2023,02:54:53,0.002,0.0,0.0,0.0
10/03/2023,02:55:53,0.002,0.0,0.0,0.0
10/03/2023,02:56:53,0.002,0.0,0.0,0.0
10/03/2023,02:57:53,0.001,0.0,0.0,0.0
10/03/2023,02:58:52,0.002,0.0,0.0,0.0
10/03/2023,02:59:53,0.002,0.0,0.0,0.0
10/03/2023,03:00:52,0.001,0.0,0.0,0.0
10/03/2023,03:01:53,0.002,0.0,0.0,0.0
10/03/2023,03:02:52,0.001,0.0,0.0,0.0
10/03/2023,03:03:53,0.001,0.0,0.0,0.0
10/03/2023,03:04:53,0.002,0.0,0.0,0.0
10/03/2023,03:05:52,0.001,0.0,0.0,0.0
10/03/2023,03:06:53,0.001,0.0,0.0,0.0
10/03/2023,03:07:53,0.002,0.0,0.0,0.0
10/03/2023,03:08:53,0.002,0.0,0.0,0.0
10/03/2023,03:09:53,0.002,0.0,0.0,0.0
10/03/2023,03:10:53,0.002,0.0,0.0,0.0
10/03/2023,03:11:53,0.002,0.0,0.0,0.0
10/03/2023,03:12:52,0.002,0.0,0.0,0.0
10/03/2023,03:13:53,0.002,0.0,0.0,0.0
10/03/2023,03:14:53,0.002,0.0,0.0,0.0
10/03/2023,03:15:53,0.001,0.0,0.0,0.0
10/03/2023,03:16:53,0.002,0.0,0.0,0.0
10/03/2023,03:17:52,0.002,0.0,0.0,0.0
10/03/2023,03:18:53,0.002,0.0,0.0,0.0
10/03/2023,03:19:52,0.001,0.0,0.0,0.0
10/03/2023,03:20:53,0.002,0.0,0.0,0.0
10/03/2023,03:21:52,0.002,0.0,0.0,0.0
10/03/2023,03:22:53,0.002,0.0,0.0,0.0
10/03/2023,03:23:53,0.002,0.0,0.0,0.0
10/03/2023,03:24:53,0.003,0.0,0.0,0.0
10/03/2023,03:25:53,0.002,0.0,0.0,0.0
10/03/2023,03:26:53,0.003,0.0,0.0,0.0
10/03/2023,03:27:52,0.001,0.0,0.0,0.0
10/03/2023,03:28:53,0.001,0.0,0.0,0.0
10/03/2023,03:29:52,0.002,0.0,0.0,0.0
10/03/2023,03:30:53,0.002,0.0,0.0,0.0
10/03/2023,03:31:53,0.002,0.0,0.0,0.0
10/03/2023,03:32:53,0.002,0.0,0.0,0.0
10/03/2023,03:33:52,0.002,0.0,0.0,0.0
10/03/2023,03:34:53,0.002,0.0,0.0,0.0
10/03/2023,03:35:53,0.001,0.0,0.0,0.0
10/03/2023,03:36:53,0.002,0.0,0.0,0.0
10/03/2023,03:37:53,0.002,0.0,0.0,0.0
10/03/2023,03:38:52,0.001,0.0,0.0,0.0
10/03/2023,03:39:52,0.000,0.0,0.0,0.0
10/03/2023,03:40:52,0.002,0.0,0.0,0.0
10/03/2023,03:41:53,0.002,0.0,0.0,0.0
10/03/2023,03:42:52,0.001,0.0,0.0,0.0
10/03/2023,03:43:54,0.000,0.0,0.0,0.0
10/03/2023,03:44:54,0.002,0.0,0.0,0.0
10/03/2023,03:45:53,0.002,0.0,0.0,0.0
10/03/2023,03:46:53,0.002,0.0,0.0,0.0
10/03/2023,03:47:52,0.002,0.0,0.0,0.0
10/03/2023,03:48:52,0.003,0.0,0.0,0.0
10/03/2023,03:49:52,0.002,0.0,0.0,0.0
10/03/2023,03:51:22,0.002,0.0,0.0,0.0
10/03/2023,03:52:56,0.002,0.0,0.0,0.0
10/03/2023,03:53:53,0.002,0.0,0.0,0.0
10/03/2023,03:54:53,0.003,0.0,0.0,0.0
10/03/2023,03:55:52,0.003,0.0,0.0,0.0
10/03/2023,03:56:53,0.002,0.0,0.0,0.0
10/03/2023,03:57:52,0.001,0.0,0.0,0.0
10/03/2023,03:58:53,0.003,0.0,0.0,0.0
10/03/2023,03:59:52,0.002,0.0,0.0,0.0
10/03/2023,04:00:52,0.002,0.0,0.0,0.0
10/03/2023,04:01:53,0.002,0.0,0.0,0.0
10/03/2023,04:02:53,0.001,0.0,0.0,0.0
10/03/2023,04:03:53,0.002,0.0,0.0,0.0
10/03/2023,04:04:52,0.001,0.0,0.0,0.0
10/03/2023,04:05:53,0.003,0.0,0.0,0.0
10/03/2023,04:06:52,0.002,0.0,0.0,0.0
10/03/2023,04:07:52,0.002,0.0,0.0,0.0
10/03/2023,04:08:53,0.002,0.0,0.0,0.0
10/03/2023,04:09:53,0.002,0.0,0.0,0.0
10/03/2023,04:10:53,0.001,0.0,0.0,0.0
10/03/2023,04:11:52,0.002,0.0,0.0,0.0
10/03/2023,04:12:52,0.002,0.0,0.0,0.0
10/03/2023,04:13:53,0.002,0.0,0.0,0.0
10/03/2023,04:14:53,0.002,0.0,0.0,0.0
10/03/2023,04:15:53,0.002,0.0,0.0,0.0
10/03/2023,04:16:52,0.002,0.0,0.0,0.0
10/03/2023,04:17:53,0.002,0.0,0.0,0.0
10/03/2023,04:18:53,0.002,0.0,0.0,0.0
10/03/2023,04:19:53,0.002,0.0,0.0,0.0
10/03/2023,04:20:53,0.002,0.0,0.0,0.0
10/03/2023,04:21:53,0.002,0.0,0.0,0.0
10/03/2023,04:22:53,0.002,0.0,0.0,0.0
10/03/2023,04:23:53,0.002,0.0,0.0,0.0
10/03/2023,04:24:53,0.002,0.0,0.0,0.0
10/03/2023,04:25:52,0.002,0.0,0.0,0.0
10/03/2023,04:26:52,0.001,0.0,0.0,0.0
10/03/2023,04:27:53,0.002,0.0,0.0,0.0
10/03/2023,04:28:53,0.002,0.0,0.0,0.0
10/03/2023,04:29:52,0.003,0.0,0.0,0.0
10/03/2023,04:30:53,0.001,0.0,0.0,0.0
10/03/2023,04:31:55,0.002,0.0,0.0,0.0
10/03/2023,04:32:53,0.002,0.0,0.0,0.0
10/03/2023,04:33:53,0.002,0.0,0.0,0.0
10/03/2023,04:34:52,0.003,0.0,0.0,0.0
10/03/2023,04:35:53,0.003,0.0,0.0,0.0
10/03/2023,04:36:52,0.001,0.0,0.0,0.0
10/03/2023,04:37:53,0.001,0.0,0.0,0.0
10/03/2023,04:38:53,0.002,0.0,0.0,0.0
10/03/2023,04:39:53,0.002,0.0,0.0,0.0
10/03/2023,04:40:53,0.002,0.0,0.0,0.0
10/03/2023,04:41:53,0.002,0.0,0.0,0.0
10/03/2023,04:42:53,0.002,0.0,0.0,0.0
10/03/2023,04:43:52,0.001,0.0,0.0,0.0
10/03/2023,04:44:52,0.002,0.0,0.0,0.0
10/03/2023,04:45:52,0.002,0.0,0.0,0.0
10/03/2023,04:46:52,0.002,0.0,0.0,0.0
10/03/2023,04:47:53,0.001,0.0,0.0,0.0
10/03/2023,04:48:53,0.001,0.0,0.0,0.0
10/03/2023,04:49:52,0.002,0.0,0.0,0.0
10/03/2023,04:50:53,0.002,0.0,0.0,0.0
10/03/2023,04:51:53,0.002,0.0,0.0,0.0
10/03/2023,04:52:52,0.002,0.0,0.0,0.0
10/03/2023,04:53:53,0.002,0.0,0.0,0.0
10/03/2023,04:54:53,0.002,0.0,0.0,0.0
10/03/2023,04:55:53,0.002,0.0,0.0,0.0
10/03/2023,04:56:53,0.003,0.0,0.0,0.0
10/03/2023,04:57:53,0.002,0.0,0.0,0.0
10/03/2023,04:58:52,0.002,0.0,0.0,0.0
10/03/2023,04:59:52,0.002,0.0,0.0,0.0
10/03/2023,05:00:52,0.002,0.0,0.0,0.0
10/03/2023,05:01:53,0.002,0.0,0.0,0.0
10/03/2023,05:02:52,0.002,0.0,0.0,0.0
10/03/2023,05:03:52,0.002,0.0,0.0,0.0
10/03/2023,05:04:53,0.002,0.0,0.0,0.0
10/03/2023,05:05:53,0.003,0.0,0.0,0.0
10/03/2023,05:06:53,0.002,0.0,0.0,0.0
10/03/2023,05:07:53,0.002,0.0,0.0,0.0
10/03/2023,05:08:53,0.003,0.0,0.0,0.0
10/03/2023,05:09:53,0.002,0.0,0.0,0.0
10/03/2023,05:10:53,0.002,0.0,0.0,0.0
10/03/2023,05:11:53,0.001,0.0,0.0,0.0
10/03/2023,05:12:53,0.002,0.0,0.0,0.0
10/03/2023,05:13:53,0.003,0.0,0.0,0.0
10/03/2023,05:14:53,0.003,0.0,0.0,0.0
10/03/2023,05:15:53,0.002,0.0,0.0,0.0
10/03/2023,05:16:53,0.002,0.0,0.0,0.0
10/03/2023,05:17:53,0.002,0.0,0.0,0.0
10/03/2023,05:18:53,0.003,0.0,0.0,0.0
10/03/2023,05:19:52,0.002,0.0,0.0,0.0
10/03/2023,05:20:53,0.002,0.0,0.0,0.0
10/03/2023,05:21:53,0.001,0.0,0.0,0.0
10/03/2023,05:22:53,0.003,0.0,0.0,0.0
10/03/2023,05:23:53,0.002,0.0,0.0,0.0
10/03/2023,05:24:53,0.002,0.0,0.0,0.0
10/03/2023,05:25:53,0.002,0.0,0.0,0.0
10/03/2023,05:26:53,0.003,0.0,0.0,0.0
10/03/2023,05:27:53,0.002,0.0,0.0,0.0
10/03/2023,05:28:53,0.002,0.0,0.0,0.0
10/03/2023,05:29:52,0.002,0.0,0.0,0.0
10/03/2023,05:30:53,0.003,0.0,0.0,0.0
10/03/2023,05:31:53,0.002,0.0,0.0,0.0
10/03/2023,05:32:53,0.002,0.0,0.0,0.0
10/03/2023,05:33:53,0.002,0.0,0.0,0.0
10/03/2023,05:34:53,0.003,0.0,0.0,0.0
10/03/2023,05:35:53,0.002,0.0,0.0,0.0
10/03/2023,05:36:53,0.003,0.0,0.0,0.0
10/03/2023,05:37:53,0.003,0.0,0.0,0.0
10/03/2023,05:38:53,0.003,0.0,0.0,0.0
10/03/2023,05:39:53,0.002,0.0,0.0,0.0
10/03/2023,05:40:53,0.002,0.0,0.0,0.0
10/03/2023,05:41:53,0.003,0.0,0.0,0.0
10/03/2023,05:42:52,0.002,0.0,0.0,0.0
10/03/2023,05:43:52,0.003,0.0,0.0,0.0
10/03/2023,05:44:52,0.002,0.0,0.0,0.0
10/03/2023,05:45:53,0.002,0.0,0.0,0.0
10/03/2023,05:46:53,0.002,0.0,0.0,0.0
10/03/2023,05:47:53,0.003,0.0,0.0,0.0
10/03/2023,05:48:53,0.003,0.0,0.0,0.0
10/03/2023,05:49:53,0.003,0.0,0.0,0.0
10/03/2023,05:50:53,0.003,0.0,0.0,0.0
10/03/2023,05:51:53,0.002,0.0,0.0,0.0
10/03/2023,05:52:53,0.002,0.0,0.0,0.0
10/03/2023,05:53:53,0.002,0.0,0.0,0.0
10/03/2023,05:54:53,0.002,0.0,0.0,0.0
10/03/2023,05:55:52,0.001,0.0,0.0,0.0
10/03/2023,05:56:52,0.002,0.0,0.0,0.0
10/03/2023,05:57:53,0.002,0.0,0.0,0.0
10/03/2023,05:58:53,0.003,0.0,0.0,0.0
10/03/2023,05:59:53,0.001,0.0,0.0,0.0
10/03/2023,06:00:53,0.002,0.0,0.0,0.0
10/03/2023,06:01:53,0.002,0.0,0.0,0.0
10/03/2023,06:02:53,0.003,0.0,0.0,0.0
10/03/2023,06:03:52,0.002,0.0,0.0,0.0
10/03/2023,06:04:53,0.003,0.0,0.0,0.0
10/03/2023,06:05:53,0.003,0.0,0.0,0.0
10/03/2023,06:06:53,0.003,0.0,0.0,0.0
10/03/2023,06:07:53,0.002,0.0,0.0,0.0
10/03/2023,06:08:53,0.003,0.0,0.0,0.0
10/03/2023,06:09:53,0.002,0.0,0.0,0.0
10/03/2023,06:10:53,0.003,0.0,0.0,0.0
10/03/2023,06:11:53,0.003,0.0,0.0,0.0
10/03/2023,06:12:52,0.003,0.0,0.0,0.0
10/03/2023,06:13:53,0.003,0.0,0.0,0.0
10/03/2023,06:14:53,0.003,0.0,0.0,0.0
10/03/2023,06:15:53,0.002,0.0,0.0,0.0
10/03/2023,06:16:53,0.003,0.0,0.0,0.0
10/03/2023,06:17:53,0.003,0.0,0.0,0.0
10/03/2023,06:18:53,0.004,0.0,0.0,0.0
10/03/2023,06:19:53,0.003,0.0,0.0,0.0
10/03/2023,06:20:53,0.003,0.0,0.0,0.0
10/03/2023,06:21:53,0.003,0.0,0.0,0.0
10/03/2023,06:22:53,0.002,0.0,0.0,0.0
10/03/2023,06:23:53,0.002,0.0,0.0,0.0
10/03/2023,06:24:53,0.004,0.0,0.0,0.0
10/03/2023,06:25:53,0.003,0.0,0.0,0.0
10/03/2023,06:26:53,0.004,0.0,0.0,0.0
10/03/2023,06:27:52,0.003,0.0,0.0,0.0
10/03/2023,06:28:53,0.003,0.0,0.0,0.0
10/03/2023,06:29:53,0.003,0.0,0.0,0.0
10/03/2023,06:30:52,0.003,0.0,0.0,0.0
10/03/2023,06:31:53,0.003,0.0,0.0,0.0
10/03/2023,06:32:53,0.004,0.0,0.0,0.0
10/03/2023,06:33:53,0.003,0.0,0.0,0.0
10/03/2023,06:34:53,0.005,0.0,0.0,0.0
10/03/2023,06:35:53,0.004,0.0,0.0,0.0
10/03/2023,06:36:53,0.005,0.0,0.0,0.0
10/03/2023,06:37:53,0.004,0.0,0.0,0.0
10/03/2023,06:38:53,0.003,0.0,0.0,0.0
10/03/2023,06:39:53,0.003,0.0,0.0,0.0
10/03/2023,06:40:53,0.004,0.0,0.0,0.0
10/03/2023,06:41:53,0.004,0.0,0.0,0.0
10/03/2023,06:42:53,0.003,0.0,0.0,0.0
10/03/2023,06:43:53,0.004,0.0,0.0,0.0
10/03/2023,06:44:53,0.005,0.0,0.0,0.0
10/03/2023,06:45:52,0.004,0.0,0.0,0.0
10/03/2023,06:46:53,0.005,0.0,0.0,0.0
10/03/2023,06:47:53,0.005,0.0,0.0,0.0
10/03/2023,06:48:53,0.005,0.0,0.0,0.0
10/03/2023,06:49:53,0.005,0.0,0.0,0.0
10/03/2023,06:50:53,0.005,0.0,0.0,0.0
10/03/2023,06:51:53,0.005,0.0,0.0,0.0
10/03/2023,06:52:53,0.005,0.0,0.0,0.0
10/03/2023,06:53:53,0.006,0.0,0.0,0.0
10/03/2023,06:54:53,0.006,0.0,0.0,0.0
10/03/2023,06:55:53,0.006,0.0,0.0,0.0
10/03/2023,06:56:53,0.006,0.0,0.0,0.0
10/03/2023,06:57:53,0.006,0.0,0.0,0.0
10/03/2023,06:58:53,0.006,0.0,0.0,0.0
10/03/2023,06:59:53,0.006,0.0,0.0,0.0
10/03/2023,07:00:53,0.006,0.0,0.0,0.0
10/03/2023,07:01:53,0.006,0.0,0.0,0.0
10/03/2023,07:02:53,0.006,0.0,0.0,0.0
10/03/2023,07:03:53,0.007,0.0,0.0,0.0
10/03/2023,07:04:53,0.005,0.0,0.0,0.0
10/03/2023,07:05:53,0.006,0.0,0.0,0.0
10/03/2023,07:06:53,0.007,0.0,0.0,0.0
10/03/2023,07:07:53,0.007,0.0,0.001,0.001
10/03/2023,07:08:53,0.007,0.0,0.001,0.0
10/03/2023,07:09:53,0.006,0.0,0.001,0.0
10/03/2023,07:10:53,0.006,0.0,0.001,0.0
10/03/2023,07:11:53,0.007,0.0,0.001,0.0
10/03/2023,07:12:53,0.006,0.0,0.001,0.0
10/03/2023,07:13:53,0.006,0.0,0.001,0.0
10/03/2023,07:14:53,0.005,0.0,0.001,0.0
10/03/2023,07:15:53,0.007,0.0,0.001,0.0
10/03/2023,07:16:53,0.007,0.0,0.001,0.0
10/03/2023,07:17:53,0.007,0.0,0.001,0.0
10/03/2023,07:18:53,0.007,0.0,0.002,0.001
10/03/2023,07:19:53,0.007,0.0,0.002,0.0
10/03/2023,07:20:53,0.007,0.0,0.002,0.0
10/03/2023,07:21:53,0.008,0.0,0.002,0.0
10/03/2023,07:22:52,0.008,0.0,0.002,0.0
10/03/2023,07:23:53,0.009,0.0,0.002,0.0
10/03/2023,07:24:53,0.009,0.0,0.002,0.0
10/03/2023,07:25:53,0.009,0.0,0.002,0.0
10/03/2023,07:26:53,0.010,0.0,0.003,0.001
10/03/2023,07:27:52,0.010,0.0,0.003,0.0
10/03/2023,07:28:53,0.011,0.0,0.003,0.0
10/03/2023,07:29:53,0.010,0.0,0.003,0.0
10/03/2023,07:30:52,0.010,0.0,0.003,0.0
10/03/2023,07:31:53,0.011,0.0,0.003,0.0
10/03/2023,07:32:52,0.012,0.0,0.004,0.001
10/03/2023,07:33:52,0.011,0.0,0.004,0.0
10/03/2023,07:34:53,0.013,0.0,0.004,0.0
10/03/2023,07:35:52,0.013,0.0,0.004,0.0
10/03/2023,07:36:53,0.014,0.0,0.005,0.001
10/03/2023,07:37:52,0.014,0.0,0.005,0.0
10/03/2023,07:38:53,0.015,0.0,0.005,0.0
10/03/2023,07:39:53,0.015,0.0,0.005,0.0
10/03/2023,07:40:53,0.016,0.0,0.006,0.001
10/03/2023,07:41:52,0.017,0.0,0.006,0.0
10/03/2023,07:42:53,0.015,0.0,0.006,0.0
10/03/2023,07:43:53,0.018,0.0,0.006,0.0
10/03/2023,07:44:53,0.018,0.0,0.007,0.001
10/03/2023,07:45:53,0.018,0.0,0.007,0.0
10/03/2023,07:46:53,0.019,0.0,0.007,0.0
10/03/2023,07:47:53,0.018,0.0,0.008,0.001
10/03/2023,07:48:54,0.018,0.0,0.008,0.0
10/03/2023,07:49:53,0.020,0.0,0.008,0.0
10/03/2023,07:50:53,0.021,0.0,0.009,0.001
10/03/2023,07:51:53,0.021,0.0,0.009,0.0
10/03/2023,07:52:53,0.023,0.0,0.009,0.0
10/03/2023,07:53:53,0.023,0.0,0.01,0.001
10/03/2023,07:54:53,0.026,0.0,0.01,0.0
10/03/2023,07:55:53,0.027,0.0,0.01,0.0
10/03/2023,07:56:53,0.029,0.0,0.011,0.001
10/03/2023,07:57:53,0.030,0.0,0.011,0.0
10/03/2023,07:58:53,0.031,0.0,0.012,0.001
10/03/2023,07:59:53,0.031,0.0,0.012,0.0
10/03/2023,08:00:53,0.033,0.0,0.013,0.001
10/03/2023,08:01:53,0.033,0.0,0.013,0.0
10/03/2023,08:02:53,0.031,0.0,0.014,0.001
10/03/2023,08:03:53,0.031,0.0,0.015,0.001
10/03/2023,08:04:53,0.031,0.0,0.015,0.0
10/03/2023,08:05:53,0.035,0.0,0.016,0.001
10/03/2023,08:06:53,0.033,0.0,0.016,0.0
10/03/2023,08:07:53,0.029,0.0,0.017,0.001
10/03/2023,08:08:53,0.028,0.0,0.017,0.0
10/03/2023,08:09:53,0.024,0.0,0.017,0.0
10/03/2023,08:10:53,0.025,0.0,0.018,0.001
10/03/2023,08:11:53,0.027,0.0,0.018,0.0
10/03/2023,08:12:53,0.028,0.0,0.019,0.001
10/03/2023,08:13:53,0.026,0.0,0.019,0.0
10/03/2023,08:14:53,0.026,0.0,0.02,0.001
10/03/2023,08:15:53,0.023,0.0,0.02,0.0
10/03/2023,08:16:53,0.029,0.0,0.021,0.001
10/03/2023,08:17:53,0.026,0.0,0.021,0.0
10/03/2023,08:18:53,0.026,0.0,0.021,0.0
10/03/2023,08:19:53,0.025,0.0,0.022,0.001
10/03/2023,08:20:53,0.030,0.0,0.022,0.0
10/03/2023,08:21:53,0.028,0.0,0.023,0.001
10/03/2023,08:22:53,0.026,0.0,0.023,0.0
10/03/2023,08:23:53,0.026,0.0,0.024,0.001
10/03/2023,08:24:53,0.031,0.0,0.024,0.0
10/03/2023,08:25:56,0.037,0.0,0.025,0.001
10/03/2023,08:26:54,0.035,0.0,0.025,0.0
10/03/2023,08:27:53,0.040,0.0,0.026,0.001
10/03/2023,08:28:53,0.035,0.0,0.027,0.001
10/03/2023,08:29:54,0.045,0.0,0.027,0.0
10/03/2023,08:30:53,0.042,0.0,0.028,0.001
10/03/2023,08:31:53,0.046,0.0,0.029,0.001
10/03/2023,08:32:53,0.050,0.0,0.029,0.0
10/03/2023,08:33:53,0.051,0.0,0.03,0.001
10/03/2023,08:34:53,0.046,0.0,0.031,0.001
10/03/2023,08:35:53,0.047,0.0,0.032,0.001
10/03/2023,08:36:53,0.048,0.0,0.033,0.001
10/03/2023,08:37:53,0.052,0.0,0.034,0.001
10/03/2023,08:38:53,0.047,0.0,0.034,0.0
10/03/2023,08:39:53,0.046,0.0,0.035,0.001
10/03/2023,08:40:53,0.050,0.0,0.036,0.001
10/03/2023,08:41:53,0.051,0.0,0.037,0.001
10/03/2023,08:42:53,0.049,0.0,0.038,0.001
10/03/2023,08:43:53,0.053,0.0,0.039,0.001
10/03/2023,08:44:53,0.047,0.0,0.039,0.0
10/03/2023,08:45:54,0.053,0.0,0.04,0.001
10/03/2023,08:46:53,0.057,0.0,0.041,0.001
10/03/2023,08:47:53,0.062,0.0,0.042,0.001
10/03/2023,08:48:53,0.064,0.0,0.043,0.001
10/03/2023,08:49:53,0.067,0.0,0.044,0.001
10/03/2023,08:50:53,0.073,0.0,0.045,0.001
10/03/2023,08:51:53,0.081,0.0,0.047,0.002
10/03/2023,08:52:53,0.089,0.0,0.048,0.001
10/03/2023,08:53:53,0.089,0.0,0.05,0.002
10/03/2023,08:54:54,0.083,0.0,0.051,0.001
10/03/2023,08:55:53,0.078,0.0,0.052,0.001
10/03/2023,08:56:53,0.086,0.0,0.054,0.002
10/03/2023,08:57:53,0.088,0.0,0.055,0.001
10/03/2023,08:58:53,0.100,0.0,0.057,0.002
10/03/2023,08:59:53,0.090,0.0,0.058,0.001
10/03/2023,09:00:53,0.090,0.0,0.06,0.002
10/03/2023,09:01:53,0.097,0.0,0.061,0.001
10/03/2023,09:02:53,0.107,0.0,0.063,0.002
10/03/2023,09:03:53,0.115,0.0,0.065,0.002
10/03/2023,09:04:53,0.114,0.0,0.067,0.002
10/03/2023,09:05:54,0.119,0.0,0.069,0.002
10/03/2023,09:06:53,0.121,0.0,0.071,0.002
10/03/2023,09:07:53,0.128,0.0,0.073,0.002
10/03/2023,09:08:54,0.138,0.0,0.075,0.002
10/03/2023,09:09:54,0.139,0.0,0.077,0.002
10/03/2023,09:10:53,0.141,0.0,0.08,0.003
10/03/2023,09:11:53,0.155,0.0,0.082,0.002
10/03/2023,09:12:53,0.162,0.0,0.085,0.003
10/03/2023,09:13:55,0.172,0.0,0.088,0.003
10/03/2023,09:14:52,0.174,0.0,0.09,0.002
10/03/2023,09:15:54,0.176,0.0,0.093,0.003
10/03/2023,09:16:53,0.184,0.0,0.096,0.003
10/03/2023,09:17:53,0.188,0.0,0.099,0.003
10/03/2023,09:18:51,0.195,0.0,0.103,0.004
10/03/2023,09:19:53,0.192,0.0,0.106,0.003
10/03/2023,09:20:53,0.199,0.0,0.109,0.003
10/03/2023,09:21:53,0.204,0.0,0.113,0.004
10/03/2023,09:22:54,0.199,0.0,0.116,0.003
10/03/2023,09:23:53,0.200,0.0,0.119,0.003
10/03/2023,09:24:53,0.203,0.0,0.123,0.004
10/03/2023,09:25:53,0.211,0.0,0.126,0.003
10/03/2023,09:26:53,0.197,0.0,0.129,0.003
10/03/2023,09:27:54,0.210,0.0,0.133,0.004
10/03/2023,09:28:53,0.213,0.0,0.136,0.003
10/03/2023,09:29:53,0.216,0.0,0.14,0.004
10/03/2023,09:30:53,0.218,1.0,0.144,0.004
10/03/2023,09:31:53,0.213,0.0,0.147,0.003
10/03/2023,09:32:53,0.205,0.0,0.151,0.004
10/03/2023,09:33:53,0.186,0.0,0.154,0.003
10/03/2023,09:34:53,0.180,0.0,0.157,0.003
10/03/2023,09:35:53,0.175,0.0,0.16,0.003
10/03/2023,09:36:53,0.181,0.0,0.163,0.003
10/03/2023,09:37:53,0.197,0.0,0.166,0.003
10/03/2023,09:38:54,0.197,0.0,0.169,0.003
10/03/2023,09:39:53,0.195,0.0,0.172,0.003
10/03/2023,09:40:54,0.199,0.0,0.176,0.004
10/03/2023,09:41:53,0.159,0.0,0.179,0.003
10/03/2023,09:42:53,0.151,0.0,0.181,0.002
10/03/2023,09:43:54,0.138,0.0,0.184,0.003
10/03/2023,09:44:54,0.159,0.0,0.186,0.002
10/03/2023,09:45:53,0.154,0.0,0.189,0.003
10/03/2023,09:46:53,0.133,0.0,0.191,0.002
10/03/2023,09:47:53,0.153,0.0,0.194,0.003
10/03/2023,09:48:53,0.158,0.0,0.196,0.002
10/03/2023,09:49:53,0.170,0.0,0.199,0.003
10/03/2023,09:50:53,0.172,0.0,0.202,0.003
10/03/2023,09:51:53,0.157,0.0,0.205,0.003
10/03/2023,09:52:53,0.187,0.0,0.207,0.002
10/03/2023,09:53:54,0.180,0.0,0.211,0.004
10/03/2023,09:54:54,0.172,0.0,0.214,0.003
10/03/2023,09:55:53,0.184,0.0,0.216,0.002
10/03/2023,09:56:53,0.172,0.0,0.219,0.003
10/03/2023,09:57:54,0.192,0.0,0.223,0.004
10/03/2023,09:58:54,0.222,1.0,0.226,0.003
10/03/2023,09:59:53,0.209,0.0,0.229,0.003
10/03/2023,10:00:54,0.218,1.0,0.233,0.004
10/03/2023,10:01:53,0.187,0.0,0.237,0.004
10/03/2023,10:02:53,0.194,0.0,0.24,0.003
10/03/2023,10:03:54,0.183,0.0,0.243,0.003
10/03/2023,10:04:54,0.194,0.0,0.246,0.003
10/03/2023,10:05:54,0.184,0.0,0.249,0.003
10/03/2023,10:06:53,0.161,0.0,0.252,0.003
10/03/2023,10:07:53,0.174,0.0,0.255,0.003
10/03/2023,10:08:53,0.169,0.0,0.258,0.003
10/03/2023,10:09:53,0.172,0.0,0.26,0.002
10/03/2023,10:10:53,0.181,0.0,0.263,0.003
10/03/2023,10:11:53,0.206,0.0,0.267,0.004
10/03/2023,10:12:53,0.242,1.0,0.27,0.003
10/03/2023,10:13:54,0.229,1.0,0.274,0.004
10/03/2023,10:14:54,0.231,1.0,0.278,0.004
10/03/2023,10:15:54,0.205,0.0,0.282,0.004
10/03/2023,10:16:53,0.245,1.0,0.286,0.004
10/03/2023,10:17:53,0.230,1.0,0.29,0.004